{"data":{"norad_id":40025,"intl_designator":"2014-033R","name":"QB50P1","alt_names":[],"object_type":"PAYLOAD","status":"ACTIVE","operator":null,"country":"BEL","launch_date":"2014-06-19","launch_site_code":"DLS","launch_vehicle":null,"mission":null,"orbit_class":"UNKNOWN","rcs_meters":0.062,"size_class":null,"mass_kg":null,"dimensions":null,"purposes":["comms","tech_demo"],"wikipedia_slug":null,"has_3d_model":false,"image_url":null,"decayed_at":null,"tle_current":{"epoch":"2026-09-20T00:20:13.530336Z","epoch_age_seconds":56694,"freshness":"FRESH","line1":"1 40025U 14033R   26263.01404549  .00004872  00000+0  23303-3 0  9992","line2":"2 40025  98.0973 280.9069 0006905 257.7849 102.2611 15.19503230667422","mean_motion":15.1950323,"eccentricity":0.0006905,"inclination_deg":98.0973,"raan_deg":280.9069,"arg_perigee_deg":257.7849,"mean_anomaly_deg":102.2611,"bstar":0.00023303,"rev_number":66742,"period_min":94.767814346798,"perigee_km":502.58649177135,"apogee_km":512.09533677096,"semimajor_km":6885.4779142712,"source":"CELESTRAK","updated_at":"2026-09-20T09:00:48.024825Z"}}}